Hlavní strana
METAR-TAF:

METAR-TAF

Letiště :

Statesboro-Bulloch County Airport

Statesboro, Georgie, Spojené státy americké

zeměpisná šířka: 32-28-59N, zeměpisná délka: 081-44-14W, výška: 57 m

Aktuální stav počasí

Zpráva byla vytvořena před 32 minutami, v 18:30 UTC
Severní vítr 9 kt
Teplota 12°C
Vlhkost vzduchu 94%
Tlak 1015 hPa
Viditelnost: 8.0 km
Zataženo ve výšce 500 ft
silný déšť

METAR: KTBR 151830Z AUTO 01009KT 5SM +RA OVC005 12/11 A2997 RMK AO2 T01150105 TSNO

Čas: 14:02 (19:02 UTC)


TAF: chybějící

Stav a předpovědi počasí z více než 4 000 letišť (zprávy METAR a TAF).

Červené a žluté tečky na mapě představují dostupné meteorologické stanice.

Když kurzor umístíte na tečku, zobrazí se název stanice.

Pak kliknutím zobrazíte stav a předpověď počasí.

Chcete-li změnit mapu, kliknutím na zelené tlačítko se znaménkem +mapu přiblížíte, kliknutím na zelené tlačítko se znaménkem – mapu oddálíte a kliknutím na zelené šipky přejdete na sousední mapy.


METAR-TAF: